Погода в Сойме

Россия / Владимирская область     55°58′29″N   40°43′50″E
темп.,
°C
ветер,
м/с
пор.,
м/с
влажн.,
%
обл.,
%
осадки,
мм/ч
давл.,
гПа
погр.,
м
25 июля, вс
вс2500:00+14ссз1156100 0.0 101711
03:00+13сз226228 0.0 101939
06:00+12сз12694 0.0 102065
09:00+19з124525 0.0 1020645
12:00+20з233947 0.0 10201355
15:00+20з454166 0.0 10201112
18:00+19зюз254999 0.0 1020419
21:00+14зюз22675 0.0 102121
26 июля, пн
пн2600:00+13з227356 0.0 102224
03:00+15юз2362100 0.0 102273
06:00+15зюз236593 0.0 102394
09:00+19з245197 0.0 1023397
12:00+24з253491 0.0 10222598
15:00+23зсз354145 0.0 10221528
18:00+23зюз2446100 0.0 10211007
21:00+19зюз275599 0.0 1021135
27 июля, вт
вт2700:00+17зюз385987 0.0 1021152
03:00+17зюз276453 0.0 1021149
06:00+16зсз14745 0.0 1022125
09:00+23ссз23485 0.0 1021554
12:00+27сз243516 0.0 10202539
15:00+26ссз244366 0.0 10191325
18:00+25всв234884 0.0 1018365
21:00+19юв226523 0.0 101840
28 июля, ср
ср2800:00+16ююв379088 1.9 1018110
03:00+15сз118811 2.4 101816
06:00+16ююз11845 0.0 101743
09:00+23зюз12560 0.0 1016468
12:00+28юз243830 0.0 10141880
15:00+24ююз2254100 0.1 101250
18:00+22з2667100 0.3 1012219
21:00+18з41193100 1.8 1012397
29 июля, чт
чт2900:00+17юв2797100 0.7 1010224
03:00+17юв3998100 4.5 1008406
06:00+17ююв3797100 1.2 1006435
09:00+17ю2396100 1.3 1005349
12:00+19зюз2695100 0.8 1005469
15:00+20з589078 2.7 1005772
18:00+20з49919 1.5 1005743
21:00+17з25971 1.6 1006115